Regional Weather Roundup
Issued by NWS

Home | Current Version | Previous Version | Graphics & Text | Print | Product List | Glossary On
Versions: 1 2 3 4 5 6 7 8 9 10 11 12 13 14 15 16 17 18 19 20 21 22 23 24 25 26 27 28 29 30 31 32 33 34 35 36 37 38 39 40 41 42 43 44 45 46 47 48 49 50
000
ASUS44 KMEG 271710
RWRTN
TENNESSEE HOURLY STATE WEATHER ROUNDUP
NATIONAL WEATHER SERVICE MEMPHIS TN
1200 PM CDT WED MAY 27 2015

TNZ002-004-019-021-049-052-054-088>092-271800-
WEST TENNESSEE

CITY           SKY/WX    TMP DP  RH WIND       PRES   REMARKS
MEMPHIS INTL   CLOUDY    77  67  71 SW8       30.17R
NWS MEMPHIS      N/A     74 N/A N/A MISG        N/A
JACKSON        CLOUDY    75  68  78 SW6       30.15F
DYERSBURG      CLOUDY    72  55  56 S12G26    30.21R THUNDER
PARIS          PTSUNNY   70  63  78 SE18      30.14S
$$

TNZ008-025-027-028-033-062-065-066-271800-
NORTH MIDDLE TENNESSEE

CITY           SKY/WX    TMP DP  RH WIND       PRES   REMARKS
NASHVILLE      PTSUNNY   82  68  62 VRB6      30.18F
CLARKSVILLE    PTSUNNY   80  70  71 SW9       30.14S
SMYRNA         PTSUNNY   81  70  69 SW5       30.19F
CROSSVILLE     PTSUNNY   76  62  62 VRB6      30.27S
$$

TNZ061-075-076-078-094-096-097-271800-
SOUTH MIDDLE TENNESSEE

CITY           SKY/WX    TMP DP  RH WIND       PRES   REMARKS
MCMINNVILLE    MOSUNNY   81  66  61 VRB3      30.21F
COLUMBIA       MOSUNNY   82  72  69 S8        30.17S
SHELBYVILLE    MOSUNNY   81  72  74 SE6       30.21F
$$

TNZ017-018-042-046-047-271800-
NORTHEAST TENNESSEE

CITY           SKY/WX    TMP DP  RH WIND       PRES   REMARKS
TRI CITIES     MOSUNNY   79  58  48 SW8       30.25F
ELIZABETHTON   MOSUNNY   79  61  53 SW5       30.25F
$$

TNZ012-013-036-069-073-074-271800-
CENTRAL EAST TENNESSEE

CITY           SKY/WX    TMP DP  RH WIND       PRES   REMARKS
KNOXVILLE      PTSUNNY   78  59  51 SW10      30.24S
OAK RIDGE      PTSUNNY   79  62  56 MISG      30.25F
GATLINBURG       N/A     79  61  53 VRB5      30.23F
MORRISTOWN     MOSUNNY   79  63  57 NW9       30.26S
$$

TNZ083-085-099-271800-
SOUTHEAST TENNESSEE

CITY           SKY/WX    TMP DP  RH WIND       PRES   REMARKS
CHATTANOOGA    PTSUNNY   77  65  66 VRB6      30.24F
$$

SKY/WX REPORTED AS FAIR MEANS FEW OR NO CLOUDS BELOW
12 THOUSAND FEET.




USA.gov is the U.S. government's official web portal to all federal, state and local government web resources and services.